{"data":{"norad_id":53065,"intl_designator":"2022-077Y","name":"STARLINK-4312","alt_names":[],"object_type":"PAYLOAD","status":"ACTIVE","operator":null,"country":"US","launch_date":"2022-07-11","launch_site_code":"AFWTR","launch_vehicle":null,"mission":null,"orbit_class":"UNKNOWN","rcs_meters":null,"size_class":null,"mass_kg":null,"dimensions":null,"purposes":["comms"],"wikipedia_slug":null,"has_3d_model":false,"image_url":null,"decayed_at":null,"tle_current":{"epoch":"2026-05-25T04:30:41.083200Z","epoch_age_seconds":52802,"freshness":"FRESH","line1":"1 53065U 22077Y   26145.18797550  .00009577  00000+0  66762-3 0  9994","line2":"2 53065  97.4463 325.1913 0001128 129.0361 231.0967 15.05609927212425","mean_motion":15.05609927,"eccentricity":0.0001128,"inclination_deg":97.4463,"raan_deg":325.1913,"arg_perigee_deg":129.0361,"mean_anomaly_deg":231.0967,"bstar":0.00066762,"rev_number":21242,"period_min":95.642302443454,"perigee_km":548.8526241426,"apogee_km":550.41552929751,"semimajor_km":6927.7710767201,"source":"CELESTRAK","updated_at":"2026-05-25T13:38:17.310495Z"}}}